THORAD AGENA D DEB, 21721

Orbit data source: Space-Track

THORAD AGENA D DEB, 21721 is space debris in SSO originally from a launch on Wed, 08 Apr 1970 UTC launched from the Air Force Western Test Range (AFWTR). Debris objects in space refer to the collection of defunct objects orbiting the Earth. Examples of debris include non-operational satellites, rocket bodies, and fragments generated from explosions, collisions, or faulty payload assembly.

Loading next visibility...
Identifier
21721, 1970-025QG
Orbit
SSO
Country
Flag of USUS
Related business
Manufacturer
Unknown
Mission
Spacecraft
Bus & Motor
Unknown
Mass
Unknown
Launch date (UTC)
1970-04-08 (56 years ago)
Launch vehicle
Unknown
Launch site
Air Force Western Test Range (AFWTR)
Object type
Payload
Rocket body
Debris
Shape & HBR
Unknown shape, 0.1 m
Radar Cross Section
Small (<0.1 m²)

Expand to show TLE details & history
Last TLE update: 9 hours ago

TLE from 9 hours ago
0 THORAD AGENA D DEB
1 21721U 70025QG  25299.79858964  .00001521  00000-0  17679-2 0  9991
2 21721 100.0922 234.4803 0003405 120.7765 267.7598 13.70659609692224
Epoch: 2025-10-26T19:09Z
TLE epoch observation values (Epoch: 2025-10-26T19:09:58.144Z)
Latitude
28.06029°
Longitude
-93.83755°
Altitude
1,000.651 km
Speed
7.354 km/s
True Right ascension
15h 16m 15s
True Declination
27° 55' 21"
Sunlit
Object was in daylight at epoch
Visualization orbit readout
Latitude
Unknown
Longitude
Unknown
Altitude
Unknown
Speed
Unknown
Apparent Right ascension
Unknown
Apparent Declination
Unknown
Sunlit
N/A
Visualization observer readout
Local Sidereal Time
23:38:09
Azimuth
Unknown
Elevation
Unknown
Doppler factor
Unknown
Orbital elements
Apogee altitude
997.009 km
Perigee altitude
991.988 km
Semi-major axis
7,372.635 km
Eccentricity
0.00034
Inclination
100.0922°
RAAN
234.4803°
Arg. of periapsis
120.7765°
True anomaly
267.72081°
Mean anomaly
267.7598°
Eccentric anomaly
267.74031°
Mean motion
3.42854 °/min
Orbital period
105 mins
BSTAR
0.0017679

Documentation

Showing up to 5 results
|